[[{"header":{"parameterUnit":"m.s-1","parameterCategory":1,"la1":30.2991,"la2":30.254,"lo1":-89.0895,"lo2":-89.0444,"dy":0.0017,"dx":0.0017,"nx":28,"ny":28,"refTime":"2026-01-03T03:00:00:Z","depth":0,"parameterNumber":2,"parameterNumberName":"U-component_of_WINDS"},"data":[0,0,0,0,0,0,0,0,0,0,0,0,0,0,0,0,0,0,0,0,0,0,0,0,0,0,0,0,0,0,0,0,0,0,0,0,0,0,0,0,0,0,0,0,0,0,0,0,0,0,0,0,0,0,0,0,0,0,1.0947,1.0947,0,1.0951,1.0951,1.0951,1.0853,1.0851,1.0848,1.0846,1.0847,1.0849,1.0852,0,0,0,0,0,0,0,0,0,0,0,0,0,1.0857,1.0859,1.0947,1.0947,1.0947,1.0951,1.0951,1.0951,1.0854,1.0851,1.0847,1.0844,1.0846,1.0849,1.0852,0,0,0,0,0,0,0,0,0,0,0,0,0,1.0882,1.086,1.0947,1.0899,1.0895,1.0951,1.0951,1.0951,1.0854,1.085,1.0847,1.0843,1.0845,1.0849,1.0852,1.0953,0,0,1.0864,1.0865,0,0,0,0,0,0,0,0,1.0881,1.0885,1.0906,1.0903,1.0898,1.0898,1.0919,1.0951,1.0855,1.087,1.0846,1.0841,1.0867,1.0869,1.0878,1.0953,1.0953,1.0864,1.0866,1.0868,1.0869,0,0,0,0,0,0,0,1.0879,1.0885,1.0948,1.0907,1.0902,1.0878,1.0877,1.0925,1.089,1.0868,1.0861,1.0863,1.0864,1.0874,1.0877,1.0953,1.0864,1.0867,1.0869,1.0871,1.1115,1.1119,0,0,0,0,0,0,1.0884,1.0884,1.0948,1.0948,1.088,1.0883,1.0882,1.0902,1.0889,1.0884,1.0866,1.0859,1.087,1.0873,1.0877,1.0996,1.0868,1.0871,1.0873,1.1111,1.1116,1.1121,0,0,0,0,0,0,1.0882,1.0891,1.0948,1.0914,1.092,1.0888,1.0911,1.0904,1.0914,1.0888,1.0881,1.0884,1.0867,1.0871,1.0936,1.0994,1.0873,1.0876,1.1106,1.1112,1.1118,1.1234,0,0,0,0,0,0,1.088,1.0891,1.0928,1.0916,1.0922,1.1007,1.0915,1.0907,1.0921,1.0911,1.0902,1.0897,1.0864,1.0931,1.0939,1.0997,1.0879,1.11,1.1109,1.1116,1.1225,1.1244,1.126,0,0,0,0,0,1.0877,1.0959,1.0931,1.0939,1.0968,1.1011,1.1014,1.0976,1.0926,1.0964,1.0948,1.0897,1.0987,1.0938,1.0947,1.1007,1.1096,1.1106,1.1116,1.1217,1.124,1.1259,0,0,0,0,0,0,1.0977,1.0957,1.0924,1.1005,1.1011,1.0994,1.1041,1.1001,1.102,1.1009,1.096,1.0959,1.1032,1.1025,1.0972,1.1105,1.1033,1.1045,1.1107,1.1128,1.1146,1.1146,1.0882,0,0,0,0,0,1.1009,1.1046,1.1025,1.1099,1.1103,1.1072,1.1089,1.1059,1.1063,1.1064,1.1052,1.1057,1.1087,1.1107,1.1132,1.1224,1.1221,1.1269,1.1287,1.1301,1.1312,1.1363,1.1385,1.1152,1.1152,1.1152,0,0,1.1074,1.1068,1.1093,1.1119,1.1119,1.1159,1.1075,1.1119,1.1148,1.107,1.1131,1.1124,1.1126,1.1205,1.1239,1.1202,1.1376,1.1314,1.1325,1.1328,1.1375,1.1397,1.1417,1.1159,1.1158,1.1156,0,0,1.1214,1.1212,1.1274,1.1278,1.1281,1.1261,1.1276,1.1267,1.1259,1.132,1.1263,1.1297,1.1348,1.1353,1.1362,1.1509,1.1464,1.1518,1.1609,1.1659,1.1678,1.1694,1.1748,1.1768,1.1529,1.153,1.153,0,1.1294,1.1352,1.1311,1.1361,1.1375,1.1308,1.1372,1.1377,1.1388,1.1399,1.1358,1.1423,1.142,1.1501,1.1537,1.1546,1.1563,1.1519,1.1679,1.1694,1.1709,1.176,1.178,1.1536,1.1536,1.1535,1.1534,0,1.1452,1.1494,1.1543,1.1559,1.1578,1.1634,1.1602,1.1627,1.1596,1.158,1.1644,1.1639,1.1663,1.168,1.165,1.1758,1.1735,1.1687,1.1613,1.1738,1.1786,1.1805,1.1546,1.1544,1.1542,1.154,0,0,1.1652,1.1647,1.1666,1.1674,1.1675,1.1706,1.176,1.1786,1.1809,1.1819,1.1865,1.1911,1.1868,1.1879,1.1849,1.1893,1.2012,1.1839,1.1839,1.1873,1.2134,1.2171,1.2194,1.1982,1.1986,1.1989,1.2134,0,1.179,1.1883,1.1849,1.1945,1.1984,1.1924,1.1971,1.1977,1.1965,1.1996,1.1981,1.2017,1.1955,1.1962,1.2003,1.1989,1.2064,1.1978,1.2025,1.2027,1.2027,1.2218,1.2257,1.2394,1.2152,1.2155,1.2157,0,1.1961,1.1982,1.2082,1.208,1.2095,1.2139,1.2161,1.2192,1.2198,1.2186,1.2201,1.2162,1.2216,1.2143,1.2218,1.216,1.2177,1.2174,1.2178,1.2182,1.21,1.2228,1.2437,1.2458,1.2186,1.2183,1.2181,0,1.21,1.2153,1.222,1.2228,1.2227,1.2259,1.226,1.2263,1.2282,1.2301,1.2313,1.2339,1.2353,1.2374,1.2344,1.2293,1.2424,1.2347,1.2416,1.2417,1.2446,1.2445,1.2662,1.2456,1.2456,1.2456,1.2455,0,1.2257,1.2321,1.2283,1.2325,1.2396,1.2357,1.2428,1.2422,1.2426,1.2466,1.2415,1.2453,1.2411,1.2446,1.2422,1.2489,1.2495,1.2488,1.2481,1.2493,1.2495,1.2504,1.2494,1.2461,1.246,1.2459,1.2458,0,1.2423,1.24,1.247,1.2465,1.2465,1.2518,1.2512,1.2551,1.2536,1.2588,1.2598,1.2574,1.2613,1.2586,1.2623,1.2608,1.2696,1.2675,1.2695,1.269,1.2761,1.2755,1.2992,1.3022,1.2797,1.2799,1.2801,0,1.2525,1.2573,1.2574,1.2598,1.2603,1.2642,1.2662,1.2627,1.265,1.2663,1.2701,1.2736,1.2762,1.2827,1.2813,1.2843,1.2823,1.2904,1.2827,1.2839,1.2826,1.2824,1.283,1.292,1.2923,1.2925,1.2927,0,1.2709,1.2696,1.2728,1.2757,1.2783,1.2804,1.282,1.2842,1.2807,1.2836,1.2876,1.2897,1.2938,1.2973,1.2999,1.2999,1.2958,1.2951,1.2969,1.2982,1.2992,1.299,1.2739,1.2946,1.2944,1.2942,1.2941,1.2941,1.2847,1.2889,1.2897,1.2935,1.2944,1.2962,1.2999,1.2991,1.3024,1.3056,1.3033,1.3082,1.309,1.3119,1.3126,1.3163,1.313,1.3155,1.3162,1.3169,1.318,1.2986,1.3168,1.3167,1.3166,1.3166,1.3165,0,1.303,1.3033,1.3069,1.3095,1.3126,1.3086,1.3103,1.3131,1.3175,1.3187,1.3215,1.3263,1.3299,1.3289,1.3321,1.3354,1.3336,1.3363,1.3361,1.3362,1.3207,1.3189,1.3378,1.3378,1.3377,1.3377,1.3377,1.3377,1.3128,1.3198,1.3187,1.3262,1.3265,1.3314,1.3327,1.3344,1.3353,1.341,1.344,1.3435,1.3439,1.3471,1.3503,1.3499,1.3514,1.3549,1.3539,1.3394,1.3373,1.3353,1.3336,1.3552,1.3552,1.3691,1.3692,1.3693]},{"header":{"parameterUnit":"m.s-1","parameterCategory":1,"la1":30.2991,"la2":30.254,"lo1":-89.0895,"lo2":-89.0444,"dy":0.0017,"dx":0.0017,"nx":28,"ny":28,"refTime":"2026-01-03T03:00:00:Z","depth":0,"parameterNumber":3,"parameterNumberName":"V-component_of_WINDS"},"data":[0,0,0,0,0,0,0,0,0,0,0,0,0,0,0,0,0,0,0,0,0,0,0,0,0,0,0,0,0,0,0,0,0,0,0,0,0,0,0,0,0,0,0,0,0,0,0,0,0,0,0,0,0,0,0,0,0,0,-4.3268,-4.3264,0,-4.2927,-4.2924,-4.292,-4.2851,-4.2853,-4.2856,-4.2858,-4.2492,-4.248,-4.2468,0,0,0,0,0,0,0,0,0,0,0,0,0,-4.3842,-4.3832,-4.3268,-4.3264,-4.326,-4.2928,-4.2923,-4.2919,-4.285,-4.2853,-4.2857,-4.286,-4.2496,-4.2482,-4.2467,0,0,0,0,0,0,0,0,0,0,0,0,0,-4.3556,-4.3829,-4.3269,-4.3186,-4.3175,-4.2929,-4.2923,-4.2917,-4.2849,-4.2853,-4.2857,-4.2861,-4.2501,-4.2483,-4.2465,-4.2272,0,0,-4.2409,-4.2401,0,0,0,0,0,0,0,0,-4.3573,-4.3535,-4.3202,-4.3191,-4.3179,-4.2936,-4.2991,-4.27,-4.2848,-4.2972,-4.2858,-4.2863,-4.2635,-4.2606,-4.2533,-4.2255,-4.2239,-4.2407,-4.2396,-4.2388,-4.2383,0,0,0,0,0,0,0,-4.3592,-4.3549,-4.3133,-4.3198,-4.3183,-4.316,-4.3124,-4.2936,-4.2785,-4.2962,-4.2956,-4.2918,-4.263,-4.2551,-4.2524,-4.2234,-4.2408,-4.2392,-4.238,-4.2373,-4.1777,-4.1773,0,0,0,0,0,0,-4.3629,-4.3566,-4.3144,-4.3123,-4.339,-4.3147,-4.3106,-4.3009,-4.2787,-4.2757,-4.2915,-4.2916,-4.258,-4.2545,-4.2511,-4.2267,-4.2389,-4.2371,-4.2361,-4.1782,-4.1776,-4.1771,0,0,0,0,0,0,-4.3642,-4.3592,-4.3157,-4.3343,-4.3286,-4.3133,-4.3025,-4.3001,-4.2922,-4.2752,-4.2723,-4.2863,-4.2582,-4.2537,-4.2333,-4.2254,-4.2363,-4.2346,-4.1788,-4.178,-4.1774,-4.1782,0,0,0,0,0,0,-4.3659,-4.3597,-4.3526,-4.3342,-4.3276,-4.2989,-4.302,-4.2991,-4.2893,-4.2891,-4.2696,-4.2667,-4.2582,-4.236,-4.2314,-4.2231,-4.2332,-4.1794,-4.1784,-4.1776,-4.1787,-4.1776,-4.1765,0,0,0,0,0,-4.368,-4.3538,-4.3523,-4.3472,-4.3185,-4.2985,-4.2947,-4.2857,-4.2887,-4.2811,-4.2702,-4.2673,-4.2272,-4.234,-4.2288,-4.2197,-4.1798,-4.1787,-4.1777,-4.1792,-4.1778,-4.1766,0,0,0,0,0,0,-4.371,-4.3513,-4.3493,-4.329,-4.3156,-4.2974,-4.2876,-4.2845,-4.2694,-4.2698,-4.2588,-4.2544,-4.2346,-4.2251,-4.2331,-4.1998,-4.2036,-4.2014,-4.2066,-4.205,-4.204,-4.2064,-4.2317,0,0,0,0,0,-4.3695,-4.3555,-4.3388,-4.3224,-4.3158,-4.3029,-4.2939,-4.2882,-4.2736,-4.2677,-4.2552,-4.2407,-4.2248,-4.2145,-4.1989,-4.1776,-4.1729,-4.1687,-4.1677,-4.1668,-4.1648,-4.1525,-4.1503,-4.1735,-4.1735,-4.1736,0,0,-4.3658,-4.3533,-4.345,-4.3227,-4.3116,-4.2968,-4.2981,-4.2824,-4.2711,-4.2651,-4.2451,-4.2355,-4.2185,-4.1976,-4.1877,-4.1891,-4.1575,-4.1654,-4.1649,-4.1633,-4.1512,-4.149,-4.1471,-4.1728,-4.1729,-4.173,0,0,-4.3515,-4.3409,-4.326,-4.3151,-4.2986,-4.2901,-4.2866,-4.269,-4.2625,-4.2425,-4.2376,-4.2238,-4.1968,-4.1848,-4.1752,-4.1568,-4.1533,-4.152,-4.1459,-4.134,-4.1322,-4.1305,-4.1234,-4.1211,-4.1502,-4.1502,-4.1502,0,-4.3488,-4.3269,-4.3186,-4.3031,-4.2932,-4.2879,-4.2724,-4.262,-4.2409,-4.234,-4.2361,-4.202,-4.1902,-4.1662,-4.1618,-4.1543,-4.1495,-4.1538,-4.1333,-4.1315,-4.1297,-4.1229,-4.1203,-4.1501,-4.1501,-4.1501,-4.1501,0,-4.3242,-4.3091,-4.2989,-4.2795,-4.2685,-4.2531,-4.2419,-4.2317,-4.2271,-4.2183,-4.1977,-4.1836,-4.1649,-4.1589,-4.154,-4.1341,-4.1355,-4.1356,-4.1391,-4.1276,-4.1209,-4.1183,-4.15,-4.15,-4.15,-4.1501,0,0,-4.3102,-4.2869,-4.2832,-4.2743,-4.2558,-4.2436,-4.2279,-4.2103,-4.2016,-4.1874,-4.1734,-4.1509,-4.1509,-4.14,-4.1337,-4.1234,-4.1092,-4.1246,-4.124,-4.1218,-4.0859,-4.0856,-4.0827,-4.1072,-4.1066,-4.1062,-4.0872,0,-4.2934,-4.2657,-4.2579,-4.2342,-4.2198,-4.2147,-4.2009,-4.1878,-4.1792,-4.1654,-4.1557,-4.1397,-4.1412,-4.1345,-4.1242,-4.1132,-4.1017,-4.1145,-4.0934,-4.0928,-4.0973,-4.0793,-4.0789,-4.0616,-4.0846,-4.0841,-4.0838,0,-4.2698,-4.2559,-4.231,-4.2145,-4.2081,-4.1959,-4.1791,-4.1662,-4.1511,-4.1456,-4.1337,-4.1283,-4.1111,-4.1162,-4.092,-4.1009,-4.0918,-4.0852,-4.0843,-4.0814,-4.0872,-4.0755,-4.0559,-4.0531,-4.0797,-4.08,-4.0803,0,-4.2616,-4.2365,-4.2184,-4.2109,-4.1913,-4.1828,-4.1741,-4.1595,-4.1495,-4.1347,-4.1279,-4.1111,-4.1018,-4.0887,-4.0788,-4.0834,-4.0553,-4.0596,-4.0497,-4.0499,-4.0434,-4.0439,-4.0216,-4.0386,-4.0387,-4.0387,-4.0388,0,-4.2432,-4.228,-4.2145,-4.2032,-4.1859,-4.177,-4.1599,-4.1509,-4.1381,-4.1245,-4.119,-4.1063,-4.0944,-4.0799,-4.0721,-4.0531,-4.049,-4.0435,-4.0415,-4.0437,-4.0443,-4.0372,-4.0379,-4.038,-4.0382,-4.0383,-4.0384,0,-4.2308,-4.2212,-4.201,-4.1844,-4.1798,-4.1678,-4.1532,-4.1418,-4.1333,-4.1163,-4.1117,-4.0981,-4.0808,-4.07,-4.0478,-4.0425,-4.0215,-4.0201,-4.0267,-4.0257,-4.0162,-4.0171,-3.9881,-3.9836,-4.0042,-4.004,-4.0039,0,-4.2194,-4.2078,-4.1901,-4.181,-4.1724,-4.1578,-4.1476,-4.1384,-4.1279,-4.11,-4.1006,-4.0833,-4.0687,-4.0414,-4.0291,-4.0121,-4.0099,-4.001,-4.0072,-4.0098,-4.0091,-4.0097,-4.0083,-3.9997,-3.9995,-3.9994,-3.9993,0,-4.2001,-4.196,-4.182,-4.1663,-4.1546,-4.1416,-4.1285,-4.1212,-4.1096,-4.0981,-4.0808,-4.0696,-4.0474,-4.0299,-4.012,-4.0023,-3.9985,-3.9976,-3.9942,-3.996,-4.0002,-3.9973,-4.0233,-3.998,-3.9982,-3.9982,-3.9983,-3.9984,-4.1874,-4.1767,-4.1627,-4.1472,-4.1367,-4.1247,-4.1132,-4.1036,-4.0892,-4.0707,-4.066,-4.0478,-4.0328,-4.0084,-3.9985,-3.9837,-3.9848,-3.9801,-3.9788,-3.9777,-3.9773,-4.0032,-3.9804,-3.9804,-3.9804,-3.9805,-3.9805,0,-4.1673,-4.1582,-4.1442,-4.1265,-4.1142,-4.1128,-4.0983,-4.0879,-4.0721,-4.0589,-4.0449,-4.0249,-4.008,-3.9947,-3.9772,-3.9679,-3.9657,-3.9635,-3.9638,-3.9615,-3.9775,-3.9819,-3.9656,-3.9656,-3.9656,-3.9656,-3.9656,-3.9656,-4.1554,-4.1372,-4.1316,-4.1079,-4.0987,-4.0813,-4.0731,-4.0619,-4.0513,-4.0294,-4.0156,-4.0073,-3.9938,-3.9754,-3.9597,-3.9561,-3.9496,-3.9478,-3.9438,-3.9588,-3.9604,-3.962,-3.966,-3.9466,-3.9466,-3.9289,-3.9288,-3.9286]}]]